Weather History for KETH - March, 2013

Change the Weather History Date:

Saturday, March 9, 2013

  Actual Average Record
Temperature  
Mean Temperature 29 °F -  
Max Temperature 32 °F 36 °F 56 °F (1990)
Min Temperature 26 °F 17 °F -17 °F (1951)
Degree Days  
Heating Degree Days 36    
Moisture  
Dew Point 29 °F    
Average Humidity 96    
Maximum Humidity 100    
Minimum Humidity 86    
Precipitation  
Precipitation 0.12 in - - ()
Sea Level Pressure  
Sea Level Pressure 29.86 in    
Wind  
Wind Speed 5 mph (NNW)    
Max Wind Speed 24 mph    
Max Gust Speed 31 mph    
Visibility 2 miles    
Events Fog , Snow    
Averages and records for this station are not official NWS values.
T = Trace of Precipitation, MM = Missing Value Source: NWS Daily Summary

Daily Weather History Graph

Daily Weather History Graph

Search for Another Location

Airport or City:

Trip Planner

Search our weather history database for the weather conditions in past years. The results will help you decide how hot, cold, wet, or windy it might be!

Date:

Astronomy

Mar. 09, 2013 Rise Set
Actual Time 6:49 AM CST 6:24 PM CST
Civil Twilight 6:19 AM CST 6:54 PM CST
Nautical Twilight 5:45 AM CST 7:28 PM CST
Astronomical Twilight 5:10 AM CST 8:03 PM CST
Moon 5:19 AM CST (3/9) 4:23 PM CST (3/9)
Length of Visible Light 12h 34m
Length of Day
11h 34m
Waning Crescent, 5% of the Moon is Illuminated
Mar 9
Waning Crescent
Mar 11
New
Mar 19
First Quarter
Mar 27
Full
Apr 2
Last Quarter

Hourly Weather History & Observations

Time (CST) Temp. Windchill Dew Point Humidity Pressure Visibility Wind Dir Wind Speed Gust Speed Precip Events Conditions
12:14 AM 32.0 °F - 30.2 °F 93% 30.01 in 1.8 mi Calm Calm - 0.06 in Snow Light Snow
12:35 AM 32.0 °F - 30.2 °F 93% 30.00 in 2.0 mi Calm Calm - 0.08 in   Overcast
12:55 AM 32.0 °F - 30.2 °F 93% 29.99 in 2.5 mi Calm Calm - 0.08 in   Overcast
1:15 AM 32.0 °F - 30.2 °F 93% 29.98 in 2.0 mi Calm Calm - N/A Snow Light Snow
1:34 AM 32.0 °F - 30.2 °F 93% 29.97 in 2.5 mi Calm Calm - N/A   Overcast
1:54 AM 32.0 °F - 30.2 °F 93% 29.96 in 2.0 mi Calm Calm - N/A   Overcast
2:15 AM 32.0 °F - 30.2 °F 93% 29.95 in 2.0 mi Calm Calm - N/A   Overcast
2:35 AM 32.0 °F - 30.2 °F 93% 29.93 in 2.0 mi Calm Calm - N/A   Overcast
2:55 AM 32.0 °F - 30.2 °F 93% 29.91 in 2.0 mi Calm Calm - N/A   Overcast
3:14 AM 32.0 °F - 30.2 °F 93% 29.90 in 1.8 mi Calm Calm - N/A   Overcast
3:34 AM 32.0 °F - 30.2 °F 93% 29.89 in 1.8 mi Calm Calm - N/A   Overcast
3:55 AM 32.0 °F - 30.2 °F 93% 29.88 in 1.8 mi Calm Calm - N/A   Overcast
4:14 AM 32.0 °F - 30.2 °F 93% 29.88 in 1.5 mi Calm Calm - N/A   Overcast
4:34 AM 32.0 °F - 30.2 °F 93% 29.87 in 1.8 mi Calm Calm - N/A   Overcast
4:54 AM 32.0 °F - 32.0 °F 100% 29.87 in 2.0 mi Calm Calm - N/A   Overcast
5:15 AM 32.0 °F - 32.0 °F 100% 29.87 in 2.0 mi Calm Calm - N/A   Overcast
5:34 AM 32.0 °F - 32.0 °F 100% 29.87 in 2.0 mi Calm Calm - N/A   Overcast
5:54 AM 32.0 °F - 32.0 °F 100% 29.87 in 2.0 mi Calm Calm - N/A   Overcast
6:14 AM 32.0 °F - 32.0 °F 100% 29.86 in 1.8 mi Calm Calm - N/A   Overcast
6:34 AM 32.0 °F - 32.0 °F 100% 29.86 in 1.5 mi Calm Calm - N/A   Overcast
6:55 AM 32.0 °F - 32.0 °F 100% 29.86 in 1.5 mi Calm Calm - N/A   Overcast
7:14 AM 32.0 °F - 30.2 °F 93% 29.85 in 1.0 mi Calm Calm - N/A   Overcast
7:34 AM 32.0 °F - 32.0 °F 100% 29.84 in 1.2 mi Calm Calm - N/A   Overcast
7:54 AM 32.0 °F - 32.0 °F 100% 29.84 in 1.0 mi Calm Calm - N/A   Overcast
8:14 AM 32.0 °F - 32.0 °F 100% 29.83 in 1.0 mi Calm Calm - N/A   Overcast
8:35 AM 32.0 °F - 32.0 °F 100% 29.82 in 1.0 mi Calm Calm - N/A   Overcast
8:54 AM 32.0 °F - 32.0 °F 100% 29.82 in 0.8 mi Calm Calm - N/A   Overcast
9:14 AM 32.0 °F - 32.0 °F 100% 29.82 in 0.2 mi Calm Calm - N/A Fog Fog
9:35 AM 32.0 °F - 32.0 °F 100% 29.81 in 0.2 mi Calm Calm - N/A Fog Fog
9:54 AM 32.0 °F - 32.0 °F 100% 29.79 in 0.2 mi Calm Calm - N/A Fog Fog
10:14 AM 32.0 °F - 32.0 °F 100% 29.80 in 0.2 mi Calm Calm - N/A Fog Fog
10:34 AM 32.0 °F - 32.0 °F 100% 29.80 in 0.2 mi Calm Calm - N/A Fog Fog
10:54 AM 32.0 °F - 32.0 °F 100% 29.80 in 0.2 mi Calm Calm - N/A Fog Fog
11:14 AM 32.0 °F - 32.0 °F 100% 29.79 in 0.2 mi Calm Calm - N/A Fog Fog
11:34 AM 32.0 °F - 32.0 °F 100% 29.79 in 0.2 mi Calm Calm - N/A   Overcast
11:54 AM 32.0 °F 26.4 °F 32.0 °F 100% 29.78 in 0.2 mi North 5.8 mph - N/A Snow Light Snow
12:14 PM 32.0 °F 25.6 °F 32.0 °F 100% 29.79 in 0.2 mi NNW 6.9 mph - 0.02 in Snow Light Snow
12:34 PM 32.0 °F 27.5 °F 32.0 °F 100% 29.78 in 0.2 mi NNW 4.6 mph - 0.02 in Snow Light Snow
12:54 PM 32.0 °F 25.6 °F 32.0 °F 100% 29.78 in 0.5 mi NNW 6.9 mph - 0.04 in Snow Light Snow
1:14 PM 32.0 °F 26.4 °F 32.0 °F 100% 29.78 in 0.5 mi NW 5.8 mph - N/A Snow Light Snow
1:34 PM 32.0 °F 21.6 °F 30.2 °F 93% 29.77 in 0.8 mi NNW 15.0 mph - N/A Snow Light Snow
1:54 PM 30.2 °F 20.2 °F 30.2 °F 100% 29.76 in 0.5 mi NNW 12.7 mph - N/A Snow Light Snow
2:14 PM 30.2 °F 19.8 °F 30.2 °F 100% 29.76 in 0.2 mi NW 13.8 mph - N/A Snow Snow
2:34 PM 28.4 °F 18.0 °F 28.4 °F 100% 29.76 in 0.2 mi NW 12.7 mph - N/A Snow Light Snow
2:54 PM 28.4 °F 17.0 °F 28.4 °F 100% 29.77 in 0.5 mi NW 15.0 mph - N/A Snow Light Snow
3:14 PM 28.4 °F 16.2 °F 28.4 °F 100% 29.78 in 0.5 mi NW 17.3 mph - N/A Snow Light Snow
3:34 PM 28.4 °F 16.6 °F 26.6 °F 93% 29.79 in 0.5 mi NW 16.1 mph 23.0 mph N/A Snow Light Snow
3:55 PM 28.4 °F 15.8 °F 26.6 °F 93% 29.78 in 0.5 mi NNW 18.4 mph 21.9 mph N/A Snow Light Snow
4:14 PM 28.4 °F 16.2 °F 26.6 °F 93% 29.78 in 0.5 mi NW 17.3 mph 23.0 mph N/A Snow Light Snow
4:35 PM 28.4 °F 16.6 °F 26.6 °F 93% 29.79 in 0.5 mi NW 16.1 mph 21.9 mph N/A Snow Light Snow
4:54 PM 28.4 °F 16.2 °F 26.6 °F 93% 29.80 in 1.2 mi NW 17.3 mph 24.2 mph N/A Snow Light Snow
5:14 PM 28.4 °F 16.2 °F 26.6 °F 93% 29.82 in 1.5 mi NW 17.3 mph 23.0 mph N/A Snow Light Snow
5:34 PM 26.6 °F 13.8 °F 26.6 °F 100% 29.83 in 1.5 mi NW 17.3 mph 24.2 mph N/A Snow Light Snow
5:54 PM 26.6 °F 13.4 °F 26.6 °F 100% 29.83 in 1.2 mi NW 18.4 mph 25.3 mph N/A Snow Light Snow
6:14 PM 26.6 °F 13.8 °F 26.6 °F 100% 29.84 in 1.2 mi NNW 17.3 mph - N/A Snow Light Snow
6:34 PM 26.6 °F 13.8 °F 26.6 °F 100% 29.85 in 1.2 mi NNW 17.3 mph 25.3 mph N/A Snow Light Snow
6:54 PM 28.4 °F 16.6 °F 26.6 °F 93% 29.86 in 1.5 mi NNW 16.1 mph 21.9 mph N/A Snow Light Snow
7:14 PM 28.4 °F 18.0 °F 26.6 °F 93% 29.87 in 2.0 mi NNW 12.7 mph - N/A Snow Light Snow
7:34 PM 28.4 °F 17.5 °F 26.6 °F 93% 29.88 in 2.5 mi NNW 13.8 mph - N/A Snow Light Snow
7:55 PM 28.4 °F 17.0 °F 26.6 °F 93% 29.90 in 2.5 mi NW 15.0 mph 19.6 mph N/A Snow Light Snow
8:14 PM 28.4 °F 16.6 °F 26.6 °F 93% 29.90 in 2.5 mi NW 16.1 mph 23.0 mph N/A Snow Light Snow
8:35 PM 26.6 °F 12.7 °F 26.6 °F 100% 29.90 in 4.0 mi NW 20.7 mph 27.6 mph N/A   Overcast
8:55 PM 28.4 °F 15.4 °F 26.6 °F 93% 29.91 in 7.0 mi NNW 19.6 mph 25.3 mph N/A   Overcast
9:14 PM 28.4 °F 16.2 °F 24.8 °F 86% 29.92 in 7.0 mi NNW 17.3 mph 24.2 mph N/A   Overcast
9:34 PM 26.6 °F 14.3 °F 24.8 °F 93% 29.93 in 10.0 mi NNW 16.1 mph 24.2 mph N/A   Overcast
9:54 PM 28.4 °F 15.4 °F 24.8 °F 86% 29.94 in 7.0 mi NNW 19.6 mph 25.3 mph N/A   Overcast
10:15 PM 26.6 °F 13.4 °F 24.8 °F 93% 29.94 in 7.0 mi NNW 18.4 mph 31.1 mph N/A   Overcast
10:34 PM 26.6 °F 13.8 °F 24.8 °F 93% 29.95 in 7.0 mi NNW 17.3 mph - N/A   Overcast
10:54 PM 26.6 °F 13.4 °F 24.8 °F 93% 29.96 in 7.0 mi NW 18.4 mph 23.0 mph N/A   Overcast
11:14 PM 26.6 °F 13.4 °F 24.8 °F 93% 29.97 in 7.0 mi NW 18.4 mph 26.5 mph N/A   Overcast
11:34 PM 26.6 °F 13.4 °F 24.8 °F 93% 29.98 in 7.0 mi NNW 18.4 mph 26.5 mph N/A   Overcast
11:54 PM 26.6 °F 11.7 °F 24.8 °F 93% 29.97 in 5.0 mi NNW 24.2 mph 28.8 mph N/A   Overcast